Total_Precipitation_Accumulation
0.13 0.15 0.21 0.30 0.25 0.17 0.07 0.02 0.01 0.01 0.01 0.02 0.03 0.04 0.04 0.03 0.03 0.08 0.05 0.04 0.05 0.07 0.11 0.21 0.31 0.37 0.35 0.31 0.26 0.20 0.16 0.16 0.18 0.21 0.20 0.20 0.18 0.18 0.18 0.20 0.23 0.25 0.27 0.28 0.33 0.33 0.33 0.30 0.24
0.16 0.24 0.40 0.44 0.30 0.19 0.07 0.02 0.01 0.00 0.01 0.02 0.02 0.03 0.04 0.05 0.05 0.06 0.07 0.06 0.07 0.09 0.14 0.21 0.30 0.39 0.40 0.37 0.30 0.26 0.26 0.23 0.24 0.26 0.26 0.26 0.23 0.22 0.22 0.22 0.22 0.23 0.22 0.23 0.24 0.20 0.16 0.12 0.10
0.27 0.40 0.56 0.50 0.34 0.18 0.07 0.02 0.01 0.01 0.01 0.03 0.03 0.04 0.05 0.08 0.07 0.07 0.08 0.08 0.12 0.15 0.19 0.26 0.34 0.39 0.42 0.41 0.38 0.34 0.32 0.33 0.32 0.32 0.31 0.33 0.32 0.28 0.25 0.23 0.21 0.18 0.16 0.15 0.14 0.11 0.07 0.05 0.04
0.46 0.62 0.64 0.52 0.34 0.15 0.06 0.03 0.02 0.02 0.03 0.02 0.04 0.07 0.09 0.10 0.12 0.11 0.12 0.14 0.17 0.21 0.24 0.34 0.41 0.43 0.42 0.42 0.40 0.38 0.36 0.36 0.37 0.33 0.32 0.36 0.39 0.36 0.28 0.22 0.17 0.13 0.11 0.10 0.08 0.06 0.04 0.03 0.03
0.70 0.82 0.68 0.54 0.32 0.13 0.06 0.04 0.03 0.03 0.04 0.04 0.06 0.10 0.13 0.14 0.16 0.21 0.24 0.24 0.24 0.26 0.28 0.37 0.50 0.56 0.55 0.53 0.49 0.44 0.41 0.39 0.40 0.35 0.33 0.37 0.41 0.41 0.31 0.21 0.15 0.10 0.09 0.09 0.07 0.04 0.04 0.03 0.03
0.91 0.94 0.75 0.50 0.27 0.12 0.05 0.05 0.05 0.05 0.06 0.07 0.10 0.15 0.22 0.21 0.24 0.27 0.36 0.37 0.36 0.36 0.39 0.46 0.60 0.66 0.67 0.66 0.60 0.55 0.51 0.46 0.44 0.41 0.43 0.42 0.42 0.43 0.33 0.21 0.16 0.14 0.11 0.09 0.07 0.05 0.04 0.03 0.03
0.91 0.95 0.73 0.38 0.22 0.15 0.07 0.07 0.08 0.08 0.07 0.10 0.13 0.23 0.32 0.35 0.43 0.42 0.47 0.54 0.55 0.52 0.54 0.61 0.66 0.72 0.77 0.73 0.66 0.62 0.59 0.56 0.51 0.48 0.49 0.47 0.45 0.41 0.31 0.20 0.17 0.16 0.15 0.12 0.09 0.07 0.06 0.05 0.04
0.89 1.01 0.72 0.36 0.19 0.16 0.11 0.11 0.12 0.12 0.11 0.10 0.18 0.29 0.36 0.42 0.55 0.65 0.70 0.75 0.77 0.75 0.69 0.70 0.72 0.74 0.82 0.82 0.72 0.64 0.58 0.56 0.56 0.52 0.48 0.40 0.38 0.40 0.34 0.20 0.17 0.17 0.15 0.13 0.11 0.08 0.08 0.06 0.04
0.91 1.01 0.68 0.36 0.21 0.17 0.18 0.20 0.17 0.14 0.18 0.20 0.25 0.31 0.37 0.49 0.71 0.90 0.97 0.98 1.04 1.04 0.93 0.82 0.82 0.79 0.82 0.87 0.79 0.72 0.64 0.60 0.57 0.52 0.42 0.38 0.39 0.36 0.31 0.20 0.13 0.14 0.14 0.12 0.11 0.09 0.08 0.06 0.04
0.92 0.82 0.50 0.30 0.24 0.25 0.24 0.25 0.24 0.25 0.29 0.34 0.40 0.44 0.54 0.73 1.01 1.12 1.12 1.12 1.17 1.20 1.12 0.96 0.89 0.87 0.90 0.89 0.89 0.84 0.74 0.65 0.59 0.50 0.46 0.41 0.41 0.39 0.33 0.26 0.15 0.12 0.13 0.12 0.11 0.10 0.08 0.05 0.03
0.62 0.56 0.42 0.35 0.31 0.32 0.32 0.29 0.28 0.32 0.35 0.36 0.41 0.54 0.75 0.98 1.27 1.34 1.39 1.39 1.37 1.38 1.35 1.18 1.02 0.99 0.96 0.90 0.88 0.89 0.79 0.70 0.62 0.55 0.50 0.44 0.44 0.41 0.40 0.33 0.24 0.17 0.12 0.11 0.10 0.08 0.06 0.04 0.02
0.41 0.38 0.40 0.41 0.35 0.35 0.36 0.36 0.35 0.32 0.33 0.34 0.40 0.54 0.79 1.07 1.27 1.36 1.49 1.57 1.65 1.65 1.64 1.44 1.24 1.10 1.04 0.96 0.84 0.81 0.79 0.73 0.63 0.54 0.55 0.51 0.45 0.39 0.35 0.31 0.24 0.20 0.13 0.10 0.08 0.06 0.05 0.04 0.03
0.34 0.31 0.34 0.42 0.41 0.37 0.35 0.36 0.40 0.32 0.32 0.36 0.43 0.60 0.83 1.14 1.37 1.54 1.68 1.73 1.85 1.93 1.92 1.82 1.54 1.29 1.15 1.08 0.97 0.82 0.72 0.65 0.64 0.58 0.54 0.48 0.41 0.35 0.34 0.32 0.29 0.23 0.16 0.11 0.09 0.07 0.05 0.04 0.04
0.29 0.30 0.37 0.43 0.48 0.40 0.39 0.39 0.41 0.35 0.32 0.42 0.50 0.64 0.79 1.12 1.49 1.68 1.86 1.96 1.92 2.08 2.19 2.19 1.89 1.55 1.29 1.16 1.04 0.91 0.73 0.66 0.66 0.64 0.56 0.50 0.42 0.35 0.32 0.31 0.29 0.26 0.21 0.16 0.12 0.09 0.07 0.06 0.05
0.34 0.43 0.47 0.49 0.52 0.44 0.46 0.53 0.44 0.37 0.33 0.41 0.48 0.61 0.76 1.05 1.42 1.68 1.84 1.96 2.05 2.16 2.34 2.41 2.26 1.94 1.52 1.29 1.15 1.04 0.89 0.75 0.66 0.61 0.59 0.57 0.52 0.43 0.37 0.34 0.30 0.27 0.25 0.23 0.18 0.15 0.13 0.09 0.07
0.56 0.69 0.66 0.48 0.51 0.49 0.55 0.59 0.41 0.37 0.36 0.38 0.44 0.57 0.72 0.90 1.22 1.51 1.80 1.91 2.05 2.20 2.33 2.42 2.40 2.24 1.86 1.45 1.27 1.15 1.06 0.95 0.79 0.71 0.69 0.65 0.59 0.53 0.49 0.40 0.32 0.30 0.32 0.29 0.23 0.18 0.16 0.12 0.10
0.79 0.65 0.53 0.41 0.41 0.50 0.49 0.50 0.41 0.36 0.35 0.34 0.37 0.47 0.69 0.84 1.03 1.25 1.58 1.81 1.88 2.07 2.26 2.49 2.43 2.31 2.13 1.83 1.57 1.41 1.25 1.14 1.01 0.84 0.76 0.80 0.77 0.70 0.64 0.49 0.39 0.37 0.36 0.32 0.30 0.24 0.20 0.16 0.12
0.56 0.36 0.33 0.37 0.38 0.42 0.39 0.33 0.35 0.38 0.39 0.36 0.39 0.44 0.59 0.78 0.84 1.00 1.28 1.63 1.74 1.92 2.14 2.33 2.58 2.50 2.47 2.40 2.08 1.74 1.54 1.32 1.19 1.03 0.88 0.87 0.88 0.86 0.82 0.70 0.58 0.53 0.47 0.40 0.34 0.29 0.26 0.22 0.19
0.43 0.34 0.28 0.25 0.30 0.37 0.34 0.28 0.31 0.32 0.37 0.36 0.38 0.42 0.46 0.60 0.72 0.88 1.13 1.45 1.66 1.76 1.97 2.10 2.31 2.49 2.53 2.44 2.15 1.79 1.55 1.47 1.43 1.29 1.16 1.06 1.00 0.96 0.91 0.86 0.77 0.67 0.59 0.50 0.45 0.41 0.35 0.30 0.29
0.57 0.50 0.35 0.25 0.23 0.33 0.33 0.28 0.29 0.31 0.36 0.35 0.36 0.38 0.41 0.47 0.55 0.70 0.99 1.19 1.37 1.54 1.68 1.91 1.99 2.24 2.30 2.22 2.18 2.02 1.91 1.78 1.68 1.58 1.39 1.26 1.21 1.10 0.99 0.92 0.89 0.78 0.70 0.65 0.62 0.58 0.51 0.44 0.40
0.62 0.51 0.42 0.34 0.29 0.34 0.38 0.35 0.29 0.29 0.31 0.28 0.28 0.29 0.36 0.41 0.45 0.57 0.78 0.99 1.10 1.28 1.54 1.66 1.73 1.96 2.18 2.25 2.39 2.46 2.39 2.10 1.83 1.66 1.58 1.46 1.40 1.30 1.15 1.03 1.00 0.97 0.84 0.76 0.77 0.76 0.71 0.69 0.67
0.63 0.38 0.43 0.44 0.53 0.49 0.37 0.45 0.32 0.25 0.25 0.25 0.27 0.25 0.29 0.37 0.40 0.47 0.54 0.71 0.84 0.96 1.27 1.61 1.74 1.88 2.07 2.34 2.35 2.28 2.14 1.92 1.67 1.65 1.71 1.69 1.59 1.48 1.33 1.22 1.15 1.12 1.06 0.95 0.95 0.95 0.95 0.95 0.90
0.57 0.40 0.46 0.55 0.64 0.60 0.37 0.37 0.31 0.21 0.23 0.25 0.28 0.27 0.32 0.42 0.45 0.44 0.46 0.58 0.70 0.80 1.01 1.29 1.58 1.82 2.01 2.13 2.18 2.24 2.10 1.92 1.86 1.77 1.73 1.66 1.57 1.52 1.43 1.37 1.33 1.28 1.25 1.22 1.23 1.19 1.13 1.09 1.04
0.65 0.66 0.71 0.75 0.92 0.86 0.36 0.32 0.30 0.24 0.27 0.28 0.28 0.29 0.35 0.42 0.47 0.44 0.44 0.53 0.65 0.71 0.83 1.02 1.28 1.47 1.68 1.87 1.96 2.02 2.03 2.03 1.98 1.80 1.68 1.67 1.65 1.61 1.52 1.49 1.49 1.47 1.44 1.40 1.37 1.36 1.35 1.31 1.24
0.96 1.28 1.63 1.53 1.27 0.67 0.24 0.27 0.26 0.22 0.29 0.33 0.33 0.35 0.37 0.37 0.39 0.39 0.43 0.49 0.59 0.66 0.74 0.84 0.95 1.08 1.26 1.44 1.59 1.68 1.81 1.91 1.83 1.73 1.60 1.57 1.54 1.49 1.46 1.45 1.50 1.53 1.50 1.50 1.50 1.49 1.43 1.45 1.44
0.93 1.10 1.28 1.04 0.64 0.33 0.19 0.22 0.22 0.23 0.32 0.36 0.35 0.35 0.33 0.37 0.39 0.37 0.37 0.42 0.51 0.57 0.64 0.70 0.77 0.84 0.99 1.13 1.25 1.39 1.54 1.73 1.72 1.69 1.54 1.41 1.35 1.33 1.39 1.38 1.35 1.36 1.41 1.45 1.45 1.45 1.42 1.42 1.40
0.84 0.82 0.72 0.90 0.59 0.33 0.19 0.14 0.14 0.17 0.23 0.30 0.31 0.29 0.29 0.37 0.40 0.37 0.36 0.38 0.45 0.49 0.54 0.63 0.73 0.77 0.84 0.96 1.09 1.19 1.28 1.39 1.46 1.54 1.57 1.42 1.32 1.29 1.30 1.28 1.22 1.17 1.16 1.23 1.31 1.31 1.31 1.33 1.32
0.69 0.65 0.82 1.15 0.91 0.49 0.20 0.11 0.17 0.19 0.20 0.27 0.30 0.32 0.35 0.39 0.39 0.36 0.38 0.41 0.46 0.47 0.48 0.55 0.70 0.73 0.74 0.81 0.90 0.99 1.08 1.22 1.31 1.35 1.36 1.33 1.27 1.25 1.24 1.20 1.11 1.06 1.01 1.01 1.07 1.09 1.10 1.15 1.14
0.63 0.78 0.92 0.93 0.70 0.59 0.38 0.24 0.23 0.23 0.21 0.25 0.30 0.33 0.36 0.40 0.40 0.40 0.44 0.50 0.52 0.48 0.50 0.55 0.62 0.72 0.76 0.77 0.82 0.86 0.86 0.93 1.08 1.19 1.21 1.22 1.19 1.17 1.15 1.11 1.07 1.02 0.94 0.89 0.88 0.86 0.90 0.97 0.99
0.50 0.50 0.68 0.98 0.72 0.51 0.45 0.34 0.24 0.24 0.21 0.22 0.27 0.31 0.33 0.35 0.37 0.42 0.49 0.51 0.52 0.54 0.56 0.60 0.61 0.67 0.77 0.78 0.79 0.82 0.83 0.83 0.90 1.00 1.10 1.16 1.22 1.15 1.11 1.06 1.02 0.97 0.91 0.86 0.83 0.80 0.78 0.81 0.84